Stations météo

réclame
Mon MeteoGroup
Ueckermünde, Allemagne (10193): Température de l'air & dewpoint: 12.11.2018 05:00:00 - 18.11.2018 05:00:00 (CET)Ueckermünde, Allemagne (10193): Température de l'air 5cm & Température de l'air -5cm: 12.11.2018 05:00:00 - 18.11.2018 05:00:00 (CET)Ueckermünde, Allemagne (10193): Température de l'air -20cm & Température de l'air -100cm: 12.11.2018 05:00:00 - 18.11.2018 05:00:00 (CET)Ueckermünde, Allemagne (10193): Vitesse du vent & gusts: 12.11.2018 05:00:00 - 18.11.2018 05:00:00 (CET)Ueckermünde, Allemagne (10193): Direction du vent: 12.11.2018 05:00:00 - 18.11.2018 05:00:00 (CET)Ueckermünde, Allemagne (10193): reduced air pressure: 12.11.2018 05:00:00 - 18.11.2018 05:00:00 (CET)Ueckermünde, Allemagne (10193): visibility: 12.11.2018 05:00:00 - 18.11.2018 05:00:00 (CET)Ueckermünde, Allemagne (10193): Ensoleillement: 12.11.2018 05:00:00 - 18.11.2018 05:00:00 (CET)Ueckermünde, Allemagne (10193): Quantités de précipitations: 12.11.2018 05:00:00 - 18.11.2018 05:00:00 (CET)
Date & Time tt [°C] td [°C] tt 5cm [°C] tt -5cm [°C] tt -20cm [°C] tt -100cm [°C] ff [km/h] ff [knt] fx [km/h] fx [knt] dd ppp [hPa] vv [km] sd [min] rr [mm]
18.11.2018 05:00:00 -4,2 -5,4 -5,8 0,8 4,2 10,0 5 3 7 4 SSW 1035,5 6 0 0,0
18.11.2018 04:00:00 -4,4 -5,6 -6,0 0,9 4,3 10,0 4 2 7 4 SSW 1036,2 6 0 0,0
18.11.2018 03:00:00 -4,2 -4,8 -6,5 1,0 4,4 10,0 3 1 7 4 WSW 1037,0 2,4 0 0,0
18.11.2018 02:00:00 -3,9 -5,0 -6,3 1,1 4,5 10,0 4 2 8 4 SSW 1037,6 4,1 0 0,0
18.11.2018 01:00:00 -4,0 -5,0 -6,3 1,1 4,6 10,0 3 2 4 2 SSW 1038,1 3,0 0 0,0
18.11.2018 00:00:00 -3,5 -4,5 -6,2 1,2 4,8 10,1 1 1 5 3 WNW 1038,5 2,1 0 0,0
17.11.2018 23:00:00 -2,5 -3,5 -5,8 1,4 4,9 10,1 3 1 4 2 SSW 1038,8 3,0 0 0,0
17.11.2018 22:00:00 -3,4 -4,1 -5,3 1,6 5,0 10,1 3 2 9 5 SW 1038,8 0,8 0 0,0
17.11.2018 21:00:00 -2,2 -3,1 -4,6 1,8 5,2 10,1 3 1 10 5 SSE 1039,0 2,5 0 0,0
17.11.2018 20:00:00 1,6 0,3 -3,5 2,0 5,3 10,1 5 3 10 5 E 1039,2 6 0 0,0
17.11.2018 19:00:00 2,4 0,3 -2,5 2,2 5,5 10,1 3 2 10 6 E 1039,4 6 0 0,0
17.11.2018 18:00:00 4,4 1,2 2,4 3,0 5,6 10,1 7 4 18 10 E 1039,6 9 0 0,0
17.11.2018 17:00:00 4,2 0,6 1,3 3,6 5,6 10,2 8 5 16 8 NE 1039,9 11 0 0,0
17.11.2018 16:00:00 4,7 1,0 3,4 4,4 5,5 10,2 10 5 19 10 ENE 1040,4 10 40 0,0
17.11.2018 15:00:00 5,2 0,5 5,3 5,3 5,3 10,2 10 6 17 9 ENE 1040,3 10 60 0,0
17.11.2018 14:00:00 5,3 0,7 6,2 5,7 5,0 10,2 9 5 14 8 ENE 1040,2 7 60 0,0
17.11.2018 13:00:00 5,4 -0,1 7,5 5,3 4,8 10,2 7 4 11 6 ENE 1040,5 8 60 0,0
17.11.2018 12:00:00 4,6 -0,6 6,6 3,9 4,7 10,2 4 2 12 7 ESE 1040,8 9 60 0,0
17.11.2018 11:00:00 3,5 -0,7 5,3 1,7 4,7 10,2 5 3 19 10 E 1041,1 8 60 0,0
17.11.2018 10:00:00 2,5 -1,0 2,7 1,4 4,8 10,3 10 5 19 10 SE 1040,9 6 60 0,0
17.11.2018 09:00:00 1,3 -1,1 0,3 1,4 4,9 10,3 8 5 16 9 E 1041,0 6 27 0,0
17.11.2018 08:00:00 0,7 -1,1 -0,8 1,5 5,0 10,3 9 5 16 9 E 1041,0 5 0 0,0
17.11.2018 07:00:00 0,6 -1,3 -0,8 1,5 5,1 10,3 9 5 16 9 E 1040,7 4,5 0 0,0
17.11.2018 06:00:00 0,7 -1,4 -0,8 1,6 5,2 10,3 8 5 22 12 E 1040,3 5 0 0,0
17.11.2018 05:00:00 0,9 -1,3 -0,4 1,6 5,3 10,3 9 5 17 9 E 1040,1 6 0 0,0
17.11.2018 04:00:00 1,4 -1,1 0,1 1,7 5,5 10,3 10 6 20 11 E 1040,4 6 0 0,0
17.11.2018 03:00:00 1,4 -1,3 -0,4 1,5 5,7 10,3 7 4 19 11 E 1040,2 9 0 0,0
17.11.2018 02:00:00 2,0 -1,1 0,4 1,8 5,9 10,3 11 6 19 11 ESE 1040,0 10 0 0,0
17.11.2018 01:00:00 2,2 -1,0 0,2 2,2 6,0 10,4 8 5 15 8 ESE 1039,9 13 0 0,0
17.11.2018 00:00:00 2,7 -0,9 0,7 2,8 6,2 10,4 8 5 17 9 ESE 1039,5 16 0 0,0
16.11.2018 23:00:00 3,5 -0,7 1,0 3,7 6,2 10,4 7 4 28 15 SE 1039,3 15 0 0,0
16.11.2018 22:00:00 5,0 0,6 4,6 4,2 6,2 10,4 14 8 25 13 SSE 1039,0 16 0 0,0
16.11.2018 21:00:00 5,1 0,5 4,7 4,0 6,3 10,4 11 6 29 16 ESE 1039,0 19 0 0,0
16.11.2018 20:00:00 4,9 1,1 4,4 3,6 6,5 10,4 10 5 18 10 E 1038,7 13 0 0,0
16.11.2018 19:00:00 4,1 1,1 1,7 3,3 6,6 10,4 8 4 16 8 ESE 1038,2 17 0 0,0
16.11.2018 18:00:00 5,0 1,5 2,4 3,8 6,8 10,4 8 4 14 7 SE 1037,8 18 0 0,0
16.11.2018 17:00:00 5,7 1,5 1,8 4,8 6,8 10,4 7 4 16 9 E 1037,7 26 0 0,0
16.11.2018 16:00:00 7,0 2,1 4,9 6,0 6,8 10,4 7 4 17 9 ESE 1037,3 23 41 0,0
16.11.2018 15:00:00 8,4 1,9 8,3 6,9 6,6 10,4 9 5 21 11 ESE 1037,3 36 60 0,0
16.11.2018 14:00:00 9,0 1,8 9,8 7,3 6,3 10,5 13 7 21 11 S 1036,9 26 60 0,0
16.11.2018 13:00:00 8,8 2,1 10,0 6,9 6,1 10,5 16 9 28 15 SSE 1036,8 14 60 0,0
16.11.2018 12:00:00 8,3 2,3 9,5 6,2 5,8 10,5 13 7 29 15 SE 1036,7 23 60 0,0
16.11.2018 11:00:00 6,8 2,2 8,0 4,8 5,7 10,5 11 6 24 13 SE 1037,3 14 60 0,0
16.11.2018 10:00:00 5,6 1,9 5,4 3,1 5,8 10,5 11 6 19 10 SE 1037,3 13 60 0,0
16.11.2018 09:00:00 3,8 1,3 2,2 2,1 5,9 10,5 10 5 16 9 SE 1036,9 9 33 0,0
16.11.2018 08:00:00 2,7 0,9 0,9 1,9 6,1 10,5 8 4 16 9 SE 1036,4 10 0 0,0
16.11.2018 07:00:00 2,7 0,6 0,9 2,0 6,2 10,5 12 6 17 9 ESE 1035,6 11 0 0,0
16.11.2018 06:00:00 2,8 0,8 0,9 2,2 6,4 10,5 8 5 15 8 ESE 1035,4 10 0 0,0
16.11.2018 05:00:00 3,0 1,1 1,1 2,3 6,6 10,5 9 5 16 9 ESE 1035,1 9 0 0,0
16.11.2018 04:00:00 3,0 1,3 0,2 2,5 6,9 10,5 7 4 12 6 ESE 1034,9 7 0 0,0
16.11.2018 03:00:00 3,2 1,6 0,0 2,7 7,1 10,5 6 4 11 6 ESE 1034,7 7 0 0,0
16.11.2018 02:00:00 3,2 1,9 -1,5 3,2 7,3 10,5 5 3 10 5 ESE 1034,7 7 0 0,0
16.11.2018 01:00:00 4,0 2,2 1,7 3,7 7,5 10,5 6 4 13 7 ESE 1034,3 8 0 0,0
16.11.2018 00:00:00 4,3 2,6 2,3 4,2 7,7 10,5 8 4 16 9 SSE 1033,9 7 0 0,0
15.11.2018 23:00:00 4,9 3,2 3,2 4,6 7,9 10,5 8 5 20 11 SE 1033,7 6 0 0,0
15.11.2018 22:00:00 5,9 3,6 3,8 5,0 8,0 10,5 10 5 21 12 SE 1033,3 8 0 0,0
15.11.2018 21:00:00 6,0 3,9 4,4 5,2 8,2 10,5 10 5 19 10 ESE 1033,0 8 0 0,0
15.11.2018 20:00:00 5,7 4,4 4,3 5,5 8,4 10,5 9 5 16 9 ESE 1032,7 4,1 0 0,0
15.11.2018 19:00:00 6,2 4,5 4,6 6,0 8,6 10,5 9 5 17 9 ESE 1032,6 6 0 0,0
15.11.2018 18:00:00 6,4 5,2 5,2 6,5 8,8 10,5 9 5 17 9 ESE 1032,3 4,0 0 0,0
15.11.2018 17:00:00 6,6 5,1 4,4 7,2 8,9 10,5 7 4 14 8 ESE 1032,0 6 0 0,0
15.11.2018 16:00:00 8,4 5,4 7,2 8,5 8,8 10,5 9 5 17 9 SE 1031,9 13 37 0,0
15.11.2018 15:00:00 9,6 5,7 9,9 9,5 8,7 10,5 10 5 18 10 SE 1031,7 14 60 0,0
15.11.2018 14:00:00 10,6 6,1 11,8 9,9 8,5 10,5 12 6 21 12 SE 1031,4 23 58 0,0
15.11.2018 13:00:00 10,6 6,4 11,9 9,6 8,3 10,5 14 8 22 12 SSE 1031,5 19 42 0,0
15.11.2018 12:00:00 9,4 6,3 9,9 9,3 8,1 10,5 9 5 16 9 SSE 1031,8 23 0 0,0
15.11.2018 11:00:00 9,2 6,4 10,0 8,7 7,9 10,5 8 4 14 8 SSE 1031,8 16 0 0,0
15.11.2018 10:00:00 8,2 6,2 8,7 7,9 7,8 10,6 9 5 17 9 S 1031,5 11 42 0,0
15.11.2018 09:00:00 6,6 5,5 6,7 6,2 7,8 10,6 11 6 16 9 SSE 1031,1 6 20 0,0
15.11.2018 08:00:00 5,3 4,7 5,0 5,6 7,9 10,6 10 5 14 8 SSE 1031,0 1,9 0 0,0
15.11.2018 07:00:00 5,6 4,9 5,1 5,9 8,0 10,6 8 5 13 7 SSE 1030,7 4,0 0 0,0
15.11.2018 06:00:00 5,3 4,7 4,9 5,8 8,1 10,6 8 5 13 7 S 1030,2 3,6 0 0,0
15.11.2018 05:00:00 5,4 4,7 4,9 6,0 8,2 10,6 8 5 13 7 S 1030,1 3,9 0 0,0
15.11.2018 04:00:00 5,3 4,7 4,7 6,0 8,3 10,6 8 5 13 7 S 1030,0 4,5 0 0,0
15.11.2018 03:00:00 5,5 4,8 5,0 6,2 8,4 10,6 10 5 13 7 S 1030,1 4,4 0 0,0
15.11.2018 02:00:00 5,6 4,9 5,0 6,4 8,5 10,6 7 4 11 6 S 1030,1 4,8 0 0,0
15.11.2018 01:00:00 6,0 5,2 5,4 6,7 8,6 10,6 7 4 11 6 S 1030,1 6 0 0,0
15.11.2018 00:00:00 6,5 5,5 6,1 6,9 8,6 10,6 7 4 11 6 S 1030,0 7 0 0,0
14.11.2018 23:00:00 6,3 5,5 6,0 6,9 8,7 10,5 6 4 10 6 S 1030,1 6 0 0,0
14.11.2018 22:00:00 6,3 5,5 5,9 6,8 8,9 10,5 8 4 11 6 S 1029,9 6 0 0,0
14.11.2018 21:00:00 6,0 5,3 4,7 6,8 9,0 10,5 5 3 9 5 SW 1030,0 5 0 0,0
14.11.2018 20:00:00 6,6 5,5 5,2 6,9 9,2 10,5 7 4 10 5 S 1029,5 9 0 0,0
14.11.2018 19:00:00 6,5 5,6 4,4 7,3 9,4 10,5 5 3 9 5 SSW 1029,5 8 0 0,0
14.11.2018 18:00:00 6,9 5,4 5,1 7,8 9,5 10,5 7 4 10 6 SSW 1029,5 12 0 0,0
14.11.2018 17:00:00 8,3 6,4 6,1 8,6 9,6 10,5 6 3 16 8 SW 1029,3 16 0 0,0
14.11.2018 16:00:00 9,4 6,7 8,3 9,7 9,5 10,5 13 7 19 10 WSW 1029,2 19 0 0,0
14.11.2018 15:00:00 10,7 7,5 10,5 10,5 9,4 10,5 13 7 17 9 SW 1028,6 18 7 0,0
14.11.2018 14:00:00 10,7 7,5 11,0 10,3 9,3 10,5 11 6 20 11 WSW 1028,4 19 0 0,0
14.11.2018 13:00:00 10,4 7,3 10,7 10,1 9,1 10,5 13 7 20 11 WSW 1028,7 22 0 0,0
14.11.2018 12:00:00 10,2 7,3 10,5 9,8 9,0 10,5 9 5 19 10 WSW 1028,4 22 0 0,0
14.11.2018 11:00:00 9,7 7,0 10,0 9,2 8,9 10,5 16 9 23 13 WSW 1028,0 21 0 0,0
14.11.2018 10:00:00 9,5 7,7 9,6 8,7 8,8 10,5 14 7 21 12 WSW 1027,7 14 0 0,0
14.11.2018 09:00:00 9,2 7,9 9,1 8,2 8,8 10,5 14 8 25 14 WSW 1027,2 22 0 0,0
14.11.2018 08:00:00 8,9 7,8 8,5 7,9 8,8 10,5 14 7 23 13 WSW 1026,7 20 0 0,0
14.11.2018 07:00:00 8,9 7,9 8,4 7,9 8,9 10,5 15 8 34 19 WSW 1026,0 20 0 0,0
14.11.2018 06:00:00 9,0 7,6 8,3 7,8 8,9 10,5 18 10 27 14 WSW 1025,7 25 0 0,0
14.11.2018 05:00:00 9,0 7,5 8,3 7,8 8,9 10,5 18 10 28 15 WSW 1025,4 24 0 0,0
14.11.2018 04:00:00 8,9 7,5 8,3 7,9 8,9 10,5 18 10 31 17 WSW 1025,2 24 0 0,0
14.11.2018 03:00:00 9,2 7,5 8,6 7,8 9,0 10,5 20 11 31 17 WSW 1024,7 27 0 0,0
14.11.2018 02:00:00 8,9 7,3 8,0 7,7 9,1 10,5 18 10 31 17 WSW 1024,5 27 0 0,0
14.11.2018 01:00:00 8,7 7,4 8,0 7,6 9,1 10,5 18 10 28 15 SW 1024,1 22 0 0,0
14.11.2018 00:00:00 8,5 7,4 7,6 7,6 9,2 10,5 17 9 27 14 SW 1023,8 22 0 0,0
13.11.2018 23:00:00 8,8 7,8 7,9 7,8 9,3 10,5 17 9 27 15 SW 1023,5 20 0 0,0
13.11.2018 22:00:00 8,3 7,5 7,3 7,6 9,5 10,5 16 8 24 13 SW 1023,1 21 0 0,0
13.11.2018 21:00:00 8,3 7,4 7,4 8,0 9,6 10,5 13 7 23 12 SW 1022,8 37 0 0,0
13.11.2018 20:00:00 9,1 8,4 8,0 8,9 9,7 10,5 11 6 45 24 SW 1022,5 22 0 0,6
13.11.2018 19:00:00 10,1 9,1 9,3 8,9 9,7 10,5 17 9 28 15 SW 1022,2 15 0 1,0
13.11.2018 18:00:00 9,2 9,2 8,4 9,2 9,8 10,5 11 6 20 11 SSW 1021,6 12 0 0,0
13.11.2018 17:00:00 10,0 9,8 9,5 9,7 9,8 10,5 14 8 23 13 SSW 1021,1 19 0 0,6
13.11.2018 16:00:00 10,1 10,1 9,6 10,1 9,7 10,5 11 6 18 10 SSW 1020,9 24 0 0,2
13.11.2018 15:00:00 10,6 10,4 10,2 10,5 9,6 10,5 9 5 18 10 SW 1020,6 17 0 0,0
13.11.2018 14:00:00 10,6 10,2 10,5 10,3 9,5 10,5 11 6 19 10 SSW 1020,4 12 0 0,5
13.11.2018 13:00:00 10,3 10,1 9,9 10,0 9,5 10,5 11 6 19 11 SW 1020,6 7 0 0,8
13.11.2018 12:00:00 10,3 10,2 10,1 9,8 9,4 10,5 11 6 18 10 SW 1020,4 4,5 0 0,6
13.11.2018 11:00:00 10,1 10,1 9,9 9,5 9,4 10,5 9 5 16 9 SW 1020,4 5 0 0,6
13.11.2018 10:00:00 9,9 9,6 9,5 9,2 9,4 10,5 10 5 15 8 SW 1020,1 6 0 0,2
13.11.2018 09:00:00 10,1 9,9 9,6 9,0 9,4 10,5 8 4 14 8 SW 1019,5 7 0 0,2
13.11.2018 08:00:00 9,5 9,5 8,8 8,8 9,4 10,5 5 3 11 6 S 1019,2 6 0 0,0
13.11.2018 07:00:00 9,7 9,7 9,2 9,0 9,4 10,5 7 4 9 5 S 1018,9 5 0 0,2
13.11.2018 06:00:00 10,2 9,9 9,4 9,1 9,4 10,5 7 4 11 6 WSW 1018,7 9 0 0,2
13.11.2018 05:00:00 10,4 9,4 9,9 9,1 9,4 10,5 7 4 9 5 S 1018,6 18 0 0,0
13.11.2018 04:00:00 10,9 9,5 9,2 9,3 9,4 10,5 4 2 10 6 W 1018,1 20 0 0,0
13.11.2018 03:00:00 11,3 9,5 10,7 9,3 9,4 10,5 6 3 14 7 SW 1018,3 25 0 0,0
13.11.2018 02:00:00 11,5 9,3 10,9 9,1 9,4 10,5 10 6 14 8 S 1017,4 25 0 0,0
13.11.2018 01:00:00 11,3 9,1 10,5 9,1 9,4 10,5 8 5 20 11 SSW 1016,9 24 0 0,0
13.11.2018 00:00:00 11,8 9,1 11,0 9,2 9,4 10,5 14 8 21 12 S 1016,7 24 0 0,0
12.11.2018 23:00:00 12,0 9,2 11,2 9,2 9,4 10,5 14 7 30 16 SSW 1016,1 21 0 0,0
12.11.2018 22:00:00 11,7 9,4 10,8 9,0 9,4 10,5 16 8 27 15 S 1015,7 15 0 0,0
12.11.2018 21:00:00 12,0 9,6 10,9 9,2 9,5 10,5 20 11 30 16 S 1015,4 14 0 0,0
12.11.2018 20:00:00 11,9 9,5 10,9 9,3 9,5 10,5 18 10 29 16 S 1015,2 15 0 0,0
12.11.2018 19:00:00 12,0 9,5 11,0 9,5 9,5 10,5 21 11 35 19 S 1015,3 18 0 0,0
12.11.2018 18:00:00 12,7 9,8 12,1 9,8 9,4 10,5 24 13 37 20 S 1015,3 21 0 0,0
12.11.2018 17:00:00 12,6 10,1 11,9 10,0 9,3 10,5 21 11 32 17 S 1015,4 20 0 0,0
12.11.2018 16:00:00 12,5 10,1 12,0 10,2 9,2 10,5 17 9 30 16 S 1015,5 23 0 0,0
12.11.2018 15:00:00 12,4 9,8 12,2 10,4 9,1 10,5 21 11 34 18 SSE 1015,6 20 0 0,0
12.11.2018 14:00:00 11,1 9,9 10,5 10,1 8,9 10,5 11 6 23 12 SE 1016,1 12 0 0,0
12.11.2018 13:00:00 10,3 9,5 10,0 9,8 8,8 10,5 9 5 25 14 SSE 1016,9 9 0 0,0
12.11.2018 12:00:00 9,9 9,3 9,7 9,4 8,7 10,5 17 9 28 15 S 1017,9 8 0 0,0
12.11.2018 11:00:00 9,5 9,2 9,4 8,9 8,6 10,5 12 7 21 12 S 1017,8 7 0 0,0
12.11.2018 10:00:00 8,9 8,6 8,7 8,4 8,6 10,5 13 7 18 10 S 1017,8 7 0 0,0
12.11.2018 09:00:00 8,7 8,5 8,4 8,1 8,6 10,5 13 7 19 10 S 1017,8 6 0 0,0
12.11.2018 08:00:00 8,6 8,4 8,1 7,9 8,6 10,5 12 6 19 10 S 1017,3 7 0 0,0
12.11.2018 07:00:00 8,6 8,4 8,1 7,9 8,6 10,5 12 6 20 11 S 1016,9 8 0 0,0
12.11.2018 06:00:00 9,1 8,8 8,3 8,0 8,6 10,5 11 6 19 10 S 1016,5 9 0 0,0
12.11.2018 05:00:00 9,6 9,6 8,9 8,3 8,5 10,5 12 6 20 11 S 1016,5 9 0 0,0

tt = Température de l'air
td = dewpoint
tt 5cm = Température de l'air 5cm
tt -5cm = Température de l'air -5cm
tt -20cm = Température de l'air -20cm
tt -100cm = Température de l'air -100cm
ff = Vitesse du vent
fx = gusts
dd = Direction du vent
ppp = reduced air pressure
vv = visibility
sd = Ensoleillement
rr = Quantités de précipitations

stations d'obs. à proximité